Flag for Colombia Weather past 2 weeks in Cali, Colombia

Now
70 °F

Passing clouds.


Feels Like: 70 °F
Forecast: 72 / 85 °F
Wind: 6 mph from Northeast

Location: Cali / Alfonso Bonillaaragon

Current Time: Sep 2, 2015 at 1:42:19 AM

Latest Report: Sep 2, 2015 at 1:00 AM


Visibility: N/A

Pressure: 30.04 "Hg (26.89 "Hg at 955m altitude)

Humidity: 83%

Dew point: 64 °F

Location of CaliLocation

Historic Weather in Cali — Graph

°F

Cali temperature yesterday

Maximum temperature yesterday: 88 °F (at 12:00 PM)
Minimum temperature yesterday: 70 °F (at 3:00 AM)
Average temperature yesterday: 77 °F

Past Weeks' High & Low Weather Summary

 TemperatureHumidityPressure
High95 °F (Aug 20, 2:00 PM)100% (Aug 30, 6:00 AM)30.07 "Hg (Aug 30, 6:00 AM)
Low61 °F (Aug 30, 6:00 AM)25% (Aug 29, 2:00 PM)29.78 "Hg (Aug 28, 4:00 PM)
Average77 °F67%29.95 "Hg
* Reported Midnight between Aug 17 and Aug 18 — Midnight between Sep 1 and Sep 2, Cali, Weather by CustomWeather, © 2015

Note: Actual official high and low records may vary slightly from our data, if they occured in-between our weather recording intervals... More about our weather records

Advertising

Cali weather history for previous 24 hours

 ConditionsComfort  
Time TempWeatherWind HumidityBarometerVisibility
12:00 AM
Wed, Sep 2
70 °FClear.7 mph83%30.04 "Hg10 mi
11:00 PM
Tue, Sep 1
70 °FClear.9 mph83%30.04 "Hg10 mi
10:00 PM73 °FClear.7 mph74%30.03 "HgN/A
9:00 PM77 °FPassing clouds.7 mph65%30.00 "HgN/A
8:00 PM77 °FPassing clouds.9 mph65%29.96 "HgN/A
7:00 PM77 °FPassing clouds.12 mph65%29.93 "HgN/A
6:00 PM79 °FScattered clouds.12 mph65%29.90 "HgN/A
5:00 PM82 °FPartly sunny.14 mph58%29.89 "HgN/A
4:00 PM84 °FPartly sunny.16 mph55%29.88 "HgN/A
3:00 PM86 °FPartly sunny.15 mph52%29.89 "HgN/A
2:00 PM86 °FBroken clouds.6 mph49%29.91 "HgN/A
1:00 PM88 °FBroken clouds.3 mph49%29.94 "HgN/A
12:00 PM88 °FPartly sunny.3 mph43%29.97 "HgN/A
11:00 AM84 °FPartly sunny.3 mph55%30.00 "HgN/A
10:00 AM82 °FScattered clouds.5 mph55%30.02 "HgN/A
9:00 AM79 °FPartly sunny.3 mph70%30.04 "HgN/A
8:00 AM73 °FPartly sunny.3 mph78%30.04 "HgN/A
7:00 AM70 °FPartly sunny.3 mph88%30.01 "HgN/A
6:00 AM70 °FBroken clouds.3 mph88%29.99 "HgN/A
5:00 AM70 °FPartly cloudy.No wind88%29.99 "HgN/A
4:00 AM70 °FPartly cloudy.5 mph88%29.99 "HgN/A
3:00 AM70 °FPassing clouds.2 mph88%29.99 "HgN/A
2:00 AM72 °FPartly cloudy.6 mph83%29.99 "HgN/A
1:00 AM72 °FPassing clouds.5 mph83%29.99 "HgN/A
Weather by CustomWeather, © 2015

See weather overviewHow to use our weather pages